Overview Statistics Trail Chart Weather Telemetry Raw packets
 

This is the latest recevied weather packets stored in our database for station/object W5ALL-WX. If no packets are shown the sender has not sent any weather packets the latest 10 day(s).

<< 47 48 49 50 51 52 53 >>
Time Temp. Humidity Pressure Rain* Wind** Luminosity Snow
1777677901 17.22° C 51% 1014.5 hPa 0 mm - - -
1777677601 17.22° C 50% 1014.5 hPa 0 mm - - -
1777677301 17.22° C 51% 1014.2 hPa 0 mm - - -
1777677001 17.22° C 56% 1014.1 hPa 0 mm - - -
1777676701 17.22° C 54% 1014.1 hPa 0 mm - - -
1777676401 17.22° C 56% 1014.1 hPa 0 mm - - -
1777676101 17.22° C 58% 1014.1 hPa 0 mm - - -
1777675801 17.78° C 60% 1014 hPa 0 mm - - -
1777675501 17.78° C 60% 1014 hPa 0 mm - - -
1777675201 17.78° C 60% 1014.1 hPa 0 mm - - -
1777674901 17.78° C 60% 1014 hPa 0 mm - - -
1777674601 18.33° C 60% 1014 hPa 0 mm - - -
1777674301 18.33° C 58% 1014 hPa 0 mm - - -
1777674001 18.33° C 60% 1013.9 hPa 0 mm - - -
1777673701 18.33° C 58% 1013.9 hPa 0 mm - - -
1777673401 19.44° C 52% 1013.8 hPa 0 mm - - -
1777673101 19.44° C 54% 1013.8 hPa 0 mm - - -
1777672801 18.33° C 57% 1013.9 hPa 0 mm - - -
1777672501 18.33° C 54% 1014 hPa 0 mm - - -
1777672201 18.89° C 54% 1014 hPa 0 mm - - -
1777671901 18.33° C 55% 1014 hPa 0 mm - - -
1777671601 18.89° C 54% 1014.1 hPa 0 mm - - -
1777671301 18.89° C 53% 1014.2 hPa 0 mm - - -
1777671001 18.89° C 55% 1014.2 hPa 0 mm - - -
1777670701 18.89° C 56% 1014.3 hPa 0 mm - - -

* Rain latest hour (hover to see other rain measurements)
** Current wind speed in m/s (hover to see current wind gust speed)